This is the latest recevied weather packets stored in our database for station/object WV6L-13. If no packets are shown the sender has not sent any weather packets the latest 1 day(s).
| Time | Temp. | Humidity | Pressure | Rain* | Wind** | Luminosity | Snow |
|---|---|---|---|---|---|---|---|
| 1778047793 | 14.44° C | 41% | 924.6 hPa | - | - | - | - |
| 1778047493 | 14.44° C | 41% | 924.7 hPa | - | - | - | - |
| 1778047193 | 14.44° C | 41% | 924.6 hPa | - | - | - | - |
| 1778046893 | 14.44° C | 42% | 924.6 hPa | - | - | - | - |
| 1778046593 | 15° C | 41% | 924.6 hPa | - | - | - | - |
| 1778046293 | 14.44° C | 41% | 924.6 hPa | - | - | - | - |
| 1778045993 | 14.44° C | 41% | 924.4 hPa | - | - | - | - |
| 1778045693 | 15° C | 39% | 924.4 hPa | - | - | - | - |
| 1778045392 | 15° C | 39% | 924.4 hPa | - | - | - | - |
| 1778045093 | 15° C | 40% | 924.4 hPa | - | - | - | - |
| 1778044793 | 15° C | 38% | 924.3 hPa | - | - | - | - |
| 1778044493 | 14.44° C | 40% | 924.4 hPa | - | - | - | - |
| 1778043894 | 15° C | 38% | 924.3 hPa | - | - | - | - |
| 1778043292 | 15° C | 38% | 924.1 hPa | - | - | - | - |
| 1778042993 | 15° C | 37% | 924.2 hPa | - | - | - | - |
| 1778042693 | 15.56° C | 36% | 924.1 hPa | - | - | - | - |
| 1778042393 | 16.11° C | 34% | 923.9 hPa | - | - | - | - |
| 1778042093 | 16.67° C | 35% | 923.8 hPa | - | - | - | - |
| 1778041793 | 16.11° C | 37% | 923.8 hPa | - | - | - | - |
| 1778041493 | 15.56° C | 37% | 923.7 hPa | - | - | - | - |
| 1778040593 | 16.11° C | 36% | 923.5 hPa | - | - | - | - |
| 1778040292 | 15.56° C | 37% | 923.3 hPa | - | - | - | - |
| 1778039692 | 16.67° C | 35% | 923.3 hPa | - | - | - | - |
| 1778039093 | 17.78° C | 33% | 923.1 hPa | - | - | - | - |
| 1778038793 | 17.78° C | 33% | 923.1 hPa | - | - | - | - |
* Rain since midnight (hover to see other rain measurements)
** Current wind speed in m/s (hover to see current wind gust speed)